User: anonymous
Location: Wildcat Hills Observatory
(41.6350°N, 103.6812°W)
Time: 11:43:33
(UTC-06:00)
Language:

Cosmos 1634 Rocket - Orbit

View from above orbital plane
View from above orbital plane
View from above satellite
View from above satellite

Ground track
Ground track

The orbit data is extracted from the following two-line orbital elements,

1 15598U 85022B   14204.48358719 -.00000009  00000-0 -24373-4 0  6868
2 15598 082.9384 174.7314 0022343 188.7837 290.0091 13.76487718474678
Epoch (UTC): 23 July 2014 11:36:21
Eccentricity: 0.0022343
inclination: 82.9384°
perigee height: 960 km
apogee height: 993 km
right ascension of ascending node: 174.7314°
argument of perigee: 188.7837°
revolutions per day: 13.76487718
mean anomaly at epoch: 290.0091°
orbit number at epoch: 47467

The dashed part of the orbit path shows where the satellite is in the earth's shadow,  

DLR